Time,TemperatureF,DewpointF,PressureIn,WindDirection,WindDirectionDegrees,WindSpeedMPH,WindSpeedGustMPH,Humidity,HourlyPrecipIn,Conditions,Clouds,dailyrainin,SoftwareType,DateUTC
2013-06-27 00:33:00,74.0,64.0,29.84,SW,226,1.0,5.0,72,0.00,,,0.07,,2013-06-27 04:33:00,
2013-06-27 00:42:00,73.0,64.0,29.84,SW,225,0.0,3.0,73,0.00,,,0.07,,2013-06-27 04:42:00,
2013-06-27 00:53:00,73.0,64.0,29.84,SW,225,0.0,3.0,73,0.00,,,0.07,,2013-06-27 04:53:00,
2013-06-27 01:02:00,73.0,64.0,29.84,SW,225,0.0,3.0,73,0.00,,,0.07,,2013-06-27 05:02:00,
2013-06-27 01:12:00,71.0,63.0,29.84,SW,225,0.0,0.0,77,0.00,,,0.07,,2013-06-27 05:12:00,
2013-06-27 01:22:00,71.0,63.0,29.84,SW,225,0.0,0.0,77,0.00,,,0.07,,2013-06-27 05:22:00,
2013-06-27 01:32:00,69.0,64.0,29.84,SW,225,0.0,0.0,83,0.00,,,0.07,,2013-06-27 05:32:00,
2013-06-27 01:42:00,69.0,64.0,29.84,SW,225,0.0,0.0,83,0.00,,,0.07,,2013-06-27 05:42:00,
2013-06-27 01:53:00,68.0,63.0,29.83,SW,225,0.0,0.0,85,0.00,,,0.07,,2013-06-27 05:53:00,
2013-06-27 02:02:00,68.0,64.0,29.84,SW,225,0.0,0.0,86,0.00,,,0.07,,2013-06-27 06:02:00,
2013-06-27 02:12:00,68.0,64.0,29.84,SW,225,0.0,0.0,86,0.00,,,0.07,,2013-06-27 06:12:00,
2013-06-27 02:23:00,68.0,64.0,29.83,SW,225,0.0,0.0,87,0.00,,,0.07,,2013-06-27 06:23:00,
2013-06-27 02:34:00,68.0,64.0,29.83,SW,225,0.0,0.0,87,0.00,,,0.07,,2013-06-27 06:34:00,
2013-06-27 02:43:00,68.0,64.0,29.83,SW,225,0.0,0.0,87,0.00,,,0.07,,2013-06-27 06:43:00,
2013-06-27 02:53:00,67.0,63.0,29.83,SW,225,0.0,0.0,88,0.00,,,0.07,,2013-06-27 06:53:00,
2013-06-27 03:02:00,67.0,64.0,29.82,SW,225,0.0,0.0,89,0.00,,,0.07,,2013-06-27 07:02:00,
2013-06-27 03:12:00,67.0,64.0,29.82,SW,225,0.0,0.0,89,0.00,,,0.07,,2013-06-27 07:12:00,
2013-06-27 03:22:00,67.0,64.0,29.82,SW,225,0.0,0.0,90,0.00,,,0.07,,2013-06-27 07:22:00,
2013-06-27 03:33:00,66.0,63.0,29.82,SW,225,0.0,1.0,91,0.00,,,0.07,,2013-06-27 07:33:00,
2013-06-27 03:42:00,66.0,63.0,29.82,SW,225,0.0,1.0,91,0.00,,,0.07,,2013-06-27 07:42:00,
2013-06-27 03:52:00,66.0,63.0,29.82,SW,225,0.0,0.0,91,0.00,,,0.07,,2013-06-27 07:52:00,
2013-06-27 04:01:00,66.0,64.0,29.81,SW,225,0.0,0.0,92,0.00,,,0.07,,2013-06-27 08:01:00,
2013-06-27 04:11:00,66.0,64.0,29.81,SW,225,0.0,0.0,92,0.00,,,0.07,,2013-06-27 08:11:00,
2013-06-27 04:22:00,66.0,64.0,29.82,SW,225,0.0,0.0,92,0.00,,,0.07,,2013-06-27 08:22:00,
2013-06-27 04:34:00,66.0,64.0,29.82,SW,225,0.0,0.0,92,0.00,,,0.07,,2013-06-27 08:34:00,
2013-06-27 04:43:00,66.0,64.0,29.82,SW,225,0.0,0.0,92,0.00,,,0.07,,2013-06-27 08:43:00,
2013-06-27 04:52:00,66.0,64.0,29.81,SW,225,0.0,1.0,92,0.00,,,0.07,,2013-06-27 08:52:00,
2013-06-27 05:02:00,66.0,64.0,29.82,SW,225,0.0,1.0,93,0.00,,,0.07,,2013-06-27 09:02:00,
2013-06-27 05:11:00,66.0,64.0,29.82,SW,225,0.0,1.0,93,0.00,,,0.07,,2013-06-27 09:11:00,
2013-06-27 05:22:00,66.0,64.0,29.82,SW,218,0.0,4.0,92,0.00,,,0.07,,2013-06-27 09:22:00,
2013-06-27 05:34:00,66.0,63.0,29.82,SW,221,0.0,3.0,91,0.00,,,0.07,,2013-06-27 09:34:00,
2013-06-27 05:43:00,66.0,63.0,29.82,SW,221,0.0,3.0,91,0.00,,,0.07,,2013-06-27 09:43:00,
2013-06-27 05:53:00,66.0,63.0,29.81,SW,221,0.0,1.0,91,0.00,,,0.07,,2013-06-27 09:53:00,
2013-06-27 06:01:00,66.0,63.0,29.80,SSW,200,0.0,1.0,91,0.00,,,0.07,,2013-06-27 10:01:00,
2013-06-27 06:11:00,66.0,63.0,29.80,SSW,200,0.0,1.0,91,0.00,,,0.07,,2013-06-27 10:11:00,
2013-06-27 06:22:00,66.0,64.0,29.81,SSW,200,0.0,0.0,92,0.00,,,0.07,,2013-06-27 10:22:00,
2013-06-27 06:32:00,66.0,64.0,29.81,SSW,200,0.0,0.0,92,0.00,,,0.07,,2013-06-27 10:32:00,
2013-06-27 06:44:00,66.0,64.0,29.81,SSW,200,0.0,1.0,93,0.00,,,0.07,,2013-06-27 10:44:00,
2013-06-27 06:54:00,66.0,64.0,29.82,SSW,213,0.0,2.0,93,0.00,,,0.07,,2013-06-27 10:54:00,
2013-06-27 07:02:00,68.0,66.0,29.82,SW,225,0.0,5.0,92,0.00,,,0.07,,2013-06-27 11:02:00,
2013-06-27 07:12:00,68.0,66.0,29.82,SW,225,0.0,5.0,92,0.00,,,0.07,,2013-06-27 11:12:00,
2013-06-27 07:33:00,69.0,66.0,29.82,SW,227,0.0,5.0,89,0.00,,,0.07,,2013-06-27 11:33:00,
2013-06-27 07:43:00,70.0,66.0,29.81,SW,229,0.0,4.0,86,0.00,,,0.07,,2013-06-27 11:43:00,
2013-06-27 07:53:00,72.0,67.0,29.81,SW,219,0.0,5.0,84,0.00,,,0.07,,2013-06-27 11:53:00,
2013-06-27 08:02:00,72.0,67.0,29.81,SW,219,0.0,5.0,84,0.00,,,0.07,,2013-06-27 12:02:00,
2013-06-27 08:12:00,73.0,67.0,29.81,WSW,237,0.0,4.0,81,0.00,,,0.07,,2013-06-27 12:12:00,
2013-06-27 08:22:00,74.0,68.0,29.81,WSW,250,0.0,3.0,81,0.00,,,0.07,,2013-06-27 12:22:00,
2013-06-27 08:34:00,75.0,68.0,29.80,SW,221,1.0,4.0,78,0.00,,,0.07,,2013-06-27 12:34:00,
2013-06-27 08:42:00,75.0,68.0,29.80,SW,221,1.0,4.0,78,0.00,,,0.07,,2013-06-27 12:42:00,
2013-06-27 09:01:00,76.0,67.0,29.80,SSW,200,0.0,2.0,75,0.00,,,0.07,,2013-06-27 13:01:00,
2013-06-27 09:11:00,76.0,67.0,29.80,SSW,200,0.0,2.0,75,0.00,,,0.07,,2013-06-27 13:11:00,
2013-06-27 09:22:00,77.0,69.0,29.80,SSW,200,0.0,2.0,76,0.00,,,0.07,,2013-06-27 13:22:00,
2013-06-27 09:34:00,77.0,69.0,29.80,SSW,200,0.0,2.0,76,0.00,,,0.07,,2013-06-27 13:34:00,
2013-06-27 09:43:00,77.0,68.0,29.79,South,186,0.0,2.0,74,0.00,,,0.07,,2013-06-27 13:43:00,
2013-06-27 09:53:00,78.0,69.0,29.79,South,184,0.0,4.0,73,0.00,,,0.07,,2013-06-27 13:53:00,
2013-06-27 10:12:00,78.0,68.0,29.79,South,183,0.0,4.0,72,0.00,,,0.07,,2013-06-27 14:12:00,
2013-06-27 10:43:00,80.0,70.0,29.78,East,94,0.0,5.0,71,0.00,,,0.07,,2013-06-27 14:43:00,
2013-06-27 10:52:00,79.0,70.0,29.78,SSE,150,1.0,4.0,73,0.00,,,0.07,,2013-06-27 14:52:00,
2013-06-27 11:12:00,79.0,69.0,29.78,ESE,109,1.0,4.0,72,0.00,,,0.07,,2013-06-27 15:12:00,
2013-06-27 11:42:00,79.0,69.0,29.78,ESE,111,0.0,2.0,72,0.00,,,0.07,,2013-06-27 15:42:00,
2013-06-27 11:52:00,79.0,70.0,29.78,ESE,113,1.0,4.0,73,0.00,,,0.07,,2013-06-27 15:52:00,
2013-06-27 12:02:00,79.0,70.0,29.78,ESE,113,1.0,4.0,73,0.00,,,0.07,,2013-06-27 16:02:00,
2013-06-27 12:11:00,79.0,69.0,29.78,ESE,115,1.0,4.0,72,0.00,,,0.07,,2013-06-27 16:11:00,
2013-06-27 12:23:00,79.0,70.0,29.77,East,98,0.0,5.0,74,0.00,,,0.07,,2013-06-27 16:23:00,
2013-06-27 12:34:00,79.0,70.0,29.77,East,98,0.0,5.0,74,0.00,,,0.07,,2013-06-27 16:34:00,
2013-06-27 12:43:00,80.0,71.0,29.77,East,90,0.0,2.0,74,0.00,,,0.07,,2013-06-27 16:43:00,
2013-06-27 12:53:00,80.0,71.0,29.77,East,90,0.0,2.0,74,0.00,,,0.07,,2013-06-27 16:53:00,
2013-06-27 13:02:00,80.0,71.0,29.77,East,90,0.0,1.0,75,0.00,,,0.07,,2013-06-27 17:02:00,
2013-06-27 13:11:00,80.0,71.0,29.77,East,90,0.0,1.0,75,0.00,,,0.07,,2013-06-27 17:11:00,
2013-06-27 13:22:00,80.0,71.0,29.77,East,90,0.0,1.0,75,0.00,,,0.07,,2013-06-27 17:22:00,
2013-06-27 13:33:00,79.0,70.0,29.77,East,90,0.0,1.0,75,0.00,,,0.07,,2013-06-27 17:33:00,
2013-06-27 13:43:00,79.0,71.0,29.76,East,90,0.0,0.0,76,0.00,,,0.07,,2013-06-27 17:43:00,
2013-06-27 13:53:00,79.0,71.0,29.76,East,90,0.0,0.0,77,0.00,,,0.07,,2013-06-27 17:53:00,
2013-06-27 14:01:00,79.0,71.0,29.76,East,90,0.0,0.0,77,0.00,,,0.07,,2013-06-27 18:01:00,
2013-06-27 14:22:00,79.0,72.0,29.76,East,90,0.0,0.0,78,0.00,,,0.07,,2013-06-27 18:22:00,
2013-06-27 14:32:00,79.0,72.0,29.76,East,90,0.0,0.0,78,0.00,,,0.07,,2013-06-27 18:32:00,
2013-06-27 14:44:00,78.0,71.0,29.75,East,90,0.0,0.0,79,0.00,,,0.07,,2013-06-27 18:44:00,
2013-06-27 14:52:00,78.0,71.0,29.75,East,90,0.0,0.0,79,0.00,,,0.07,,2013-06-27 18:52:00,
2013-06-27 15:11:00,78.0,71.0,29.75,East,90,0.0,0.0,80,0.00,,,0.07,,2013-06-27 19:11:00,
2013-06-27 15:23:00,78.0,71.0,29.75,East,90,0.0,0.0,80,0.00,,,0.07,,2013-06-27 19:23:00,
2013-06-27 15:34:00,78.0,71.0,29.74,East,90,0.0,0.0,79,0.00,,,0.07,,2013-06-27 19:34:00,
2013-06-27 15:42:00,78.0,70.0,29.74,East,90,0.0,1.0,77,0.00,,,0.07,,2013-06-27 19:42:00,
2013-06-27 15:53:00,78.0,70.0,29.73,East,93,0.0,3.0,77,0.00,,,0.07,,2013-06-27 19:53:00,
2013-06-27 16:02:00,78.0,70.0,29.73,East,93,0.0,3.0,77,0.00,,,0.07,,2013-06-27 20:02:00,
2013-06-27 16:11:00,78.0,71.0,29.73,ESE,111,0.0,3.0,78,0.00,,,0.07,,2013-06-27 20:11:00,
2013-06-27 16:47:00,78.0,71.0,29.72,East,101,0.0,5.0,78,0.00,,,0.01,,2013-06-27 20:47:00,
2013-06-27 16:54:00,78.0,71.0,29.72,SE,126,1.0,4.0,79,0.00,,,0.01,,2013-06-27 20:54:00,
2013-06-27 17:06:00,78.0,71.0,29.72,SE,126,1.0,4.0,79,0.00,,,0.01,,2013-06-27 21:06:00,
2013-06-27 17:16:00,78.0,71.0,29.72,East,98,0.0,4.0,79,0.00,,,0.01,,2013-06-27 21:16:00,
2013-06-27 17:25:00,78.0,71.0,29.72,East,98,0.0,4.0,79,0.00,,,0.01,,2013-06-27 21:25:00,
2013-06-27 17:36:00,77.0,70.0,29.71,SE,130,1.0,4.0,79,0.00,,,0.01,,2013-06-27 21:36:00,
2013-06-27 17:53:00,77.0,70.0,29.71,ESE,115,0.0,4.0,80,0.00,,,0.01,,2013-06-27 21:53:00,
2013-06-27 18:06:00,77.0,70.0,29.71,ESE,115,0.0,4.0,80,0.00,,,0.01,,2013-06-27 22:06:00,
2013-06-27 18:16:00,77.0,70.0,29.71,ESE,115,0.0,4.0,80,0.00,,,0.01,,2013-06-27 22:16:00,
2013-06-27 18:25:00,77.0,70.0,29.71,ESE,115,0.0,4.0,80,0.00,,,0.01,,2013-06-27 22:25:00,
2013-06-27 18:35:00,77.0,71.0,29.70,ESE,115,0.0,1.0,82,0.00,,,0.01,,2013-06-27 22:35:00,
2013-06-27 19:07:00,75.0,69.0,29.70,ENE,65,0.0,3.0,82,0.00,,,0.01,,2013-06-27 23:07:00,
2013-06-27 19:17:00,74.0,68.0,29.70,NE,46,0.0,2.0,83,0.00,,,0.01,,2013-06-27 23:17:00,
2013-06-27 19:36:00,73.0,68.0,29.71,NE,46,0.0,1.0,83,0.00,,,0.01,,2013-06-27 23:36:00,
2013-06-27 19:46:00,73.0,67.0,29.71,NE,46,0.0,1.0,82,0.00,,,0.01,,2013-06-27 23:46:00,
2013-06-27 19:55:00,73.0,68.0,29.71,East,84,0.0,2.0,83,0.00,,,0.01,,2013-06-27 23:55:00,
2013-06-27 20:07:00,73.0,68.0,29.71,East,84,0.0,2.0,83,0.00,,,0.01,,2013-06-28 00:07:00,
2013-06-27 20:16:00,73.0,67.0,29.71,East,84,0.0,0.0,82,0.00,,,0.01,,2013-06-28 00:16:00,
2013-06-27 20:36:00,73.0,67.0,29.70,East,84,0.0,0.0,82,0.00,,,0.01,,2013-06-28 00:36:00,
2013-06-27 20:45:00,73.0,67.0,29.69,East,84,0.0,0.0,82,0.00,,,0.00,,2013-06-28 00:45:00,
2013-06-27 20:54:00,73.0,67.0,29.70,East,84,0.0,1.0,82,0.00,,,0.00,,2013-06-28 00:54:00,
2013-06-27 21:09:00,73.0,67.0,29.70,East,84,0.0,1.0,82,0.00,,,0.00,,2013-06-28 01:09:00,
2013-06-27 21:15:00,73.0,67.0,29.70,East,84,0.0,0.0,82,0.00,,,0.00,,2013-06-28 01:15:00,
2013-06-27 21:26:00,73.0,67.0,29.70,East,84,0.0,0.0,82,0.00,,,0.00,,2013-06-28 01:26:00,
2013-06-27 21:36:00,73.0,67.0,29.69,East,85,0.0,1.0,82,0.00,,,0.00,,2013-06-28 01:36:00,
2013-06-27 21:47:00,73.0,65.0,29.69,WNW,292,1.0,5.0,77,0.00,,,0.00,,2013-06-28 01:47:00,
2013-06-27 21:56:00,73.0,65.0,29.69,WNW,292,1.0,5.0,77,0.00,,,0.00,,2013-06-28 01:56:00,
2013-06-27 22:08:00,73.0,66.0,29.69,WNW,292,0.0,0.0,79,0.00,,,0.00,,2013-06-28 02:08:00,
2013-06-27 22:37:00,72.0,65.0,29.69,WNW,298,0.0,2.0,80,0.00,,,0.00,,2013-06-28 02:37:00,
2013-06-27 22:49:00,71.0,65.0,29.69,WNW,298,1.0,3.0,80,0.00,,,0.00,,2013-06-28 02:49:00,
2013-06-27 23:07:00,71.0,65.0,29.71,South,184,2.0,10.0,80,0.00,,,0.00,,2013-06-28 03:07:00,
2013-06-27 23:28:00,69.0,65.0,29.70,ESE,123,0.0,6.0,86,0.05,,,0.05,,2013-06-28 03:28:00,
2013-06-27 23:38:00,67.0,64.0,29.69,SE,126,0.0,2.0,91,0.40,,,0.40,,2013-06-28 03:38:00,
2013-06-27 23:45:00,67.0,65.0,29.67,NW,304,0.0,3.0,93,0.49,,,0.49,,2013-06-28 03:45:00,
2013-06-27 23:55:00,67.0,65.0,29.67,NW,304,0.0,3.0,93,0.49,,,0.49,,2013-06-28 03:55:00,